Wind_Speed
57 57 56 56 55 55 54 54 54 54 54 54 54 54 54 55 55 55 54 54 54 54 53 53 54 54 54 54 53 54 54 54 54 52 52 52 52 52 52 52 53 52 52
58 58 58 58 58 57 57 56 56 56 56 56 57 57 57 57 57 57 57 56 56 55 55 55 55 55 54 54 54 54 54 54 55 54 53 53 52 52 52 52 52 51 52
59 59 59 59 59 58 58 58 59 59 59 59 59 59 59 59 59 59 58 58 58 57 57 57 56 56 55 55 55 55 54 54 55 55 54 53 53 52 53 52 51 51 52
60 60 60 60 60 60 60 60 60 60 60 60 60 60 60 60 60 59 59 59 59 58 58 57 56 56 55 56 56 55 55 55 56 56 54 53 53 52 52 51 51 52 53
60 60 60 60 61 61 61 61 61 61 60 61 61 61 61 61 60 60 60 60 60 59 58 57 57 56 56 56 56 56 56 55 55 55 54 53 53 52 52 52 52 52 52
59 59 59 60 61 61 61 61 61 61 60 60 60 61 61 61 60 60 60 60 59 59 58 57 57 57 56 56 56 56 56 55 54 54 54 54 52 52 51 52 52 52 51
58 58 59 60 60 60 60 60 60 60 60 60 60 60 60 60 60 60 60 59 59 59 58 57 57 56 56 56 55 55 55 54 54 53 53 52 52 51 52 52 52 51 50
57 58 58 59 59 59 59 59 59 59 59 59 60 60 60 60 60 59 59 59 58 58 58 57 57 56 56 55 55 54 53 53 52 52 52 51 51 52 52 52 51 51 50
60 60 60 60 61 61 60 59 60 60 60 60 60 60 60 59 58 58 58 58 57 57 57 57 56 55 55 55 54 53 53 52 52 52 52 52 52 52 51 51 51 51 51
61 61 61 61 62 61 61 60 60 60 60 60 60 60 59 58 58 58 58 58 57 56 55 55 55 55 54 54 53 52 52 51 51 51 51 51 51 51 51 51 51 51 51
62 62 62 61 61 61 60 60 60 59 59 59 58 58 58 58 57 57 57 56 55 55 54 54 54 54 53 52 51 51 50 50 51 51 51 51 51 51 51 52 52 52 52
64 63 62 61 61 62 62 61 60 60 59 59 59 58 58 58 58 57 57 56 55 55 55 54 54 53 52 51 51 51 50 50 51 51 51 51 51 51 52 52 52 52 52
66 65 64 62 62 62 62 62 61 61 60 59 59 59 59 58 57 56 56 56 56 56 55 55 54 53 53 52 52 52 51 51 51 51 51 52 52 52 53 53 53 53 53
65 64 64 63 62 62 61 61 61 60 60 59 59 59 59 58 57 57 57 57 56 56 55 54 53 53 53 53 53 52 52 52 52 52 52 52 52 53 53 54 53 53 53
63 63 62 62 61 61 61 61 61 60 59 58 59 58 58 57 57 57 57 57 56 55 55 55 54 54 54 54 53 52 52 52 53 53 53 52 53 53 53 54 54 54 55
62 62 62 61 61 61 61 62 61 60 59 59 59 59 59 59 59 58 59 58 57 56 56 56 55 55 54 53 53 53 53 53 53 53 53 54 54 54 54 55 55 55 56
61 62 62 61 61 61 61 61 61 61 61 61 61 60 60 60 60 60 59 59 58 57 57 56 55 55 55 54 54 54 54 54 54 54 55 55 55 55 56 56 56 56 57
60 61 61 61 62 62 61 60 60 60 61 61 62 62 61 61 61 61 61 60 59 58 57 57 56 56 55 55 55 55 55 55 55 56 56 56 56 57 57 57 57 58 58
59 59 60 61 61 62 61 61 61 61 61 62 62 62 62 62 61 61 60 60 59 58 57 57 56 56 56 56 56 56 56 56 56 56 57 58 58 58 58 59 59 60 61
58 58 59 60 61 61 61 61 60 61 61 61 61 61 61 61 60 60 59 60 59 59 58 57 57 57 57 57 57 56 57 57 57 58 58 59 60 60 60 61 61 62 63
57 58 58 59 59 59 60 60 60 59 60 60 60 60 60 60 60 60 59 59 59 59 59 58 58 58 58 58 58 58 59 59 59 59 60 61 61 61 62 62 63 64 65
54 55 56 57 58 58 58 59 60 60 60 60 60 61 61 60 60 60 59 59 59 59 59 59 59 59 60 60 60 60 61 61 61 61 62 62 62 63 63 64 65 66 66
52 53 54 55 56 57 57 58 58 59 60 61 61 61 60 60 60 60 60 59 59 59 60 60 61 61 61 61 61 62 62 62 62 63 63 63 64 65 66 66 67 67 67
52 52 53 54 55 56 57 58 58 59 60 60 60 61 61 60 60 60 60 60 60 61 61 61 62 62 62 62 63 63 64 64 64 65 65 66 66 67 68 68 68 68 68
53 53 54 54 55 56 57 57 58 58 59 59 60 60 60 60 60 61 61 62 62 62 62 62 63 63 64 64 65 65 66 66 67 67 67 68 69 69 69 69 69 68 68
52 53 53 54 54 56 57 57 58 58 58 59 59 60 61 61 61 62 62 62 62 63 63 63 64 65 66 66 67 67 68 68 69 69 69 69 69 69 69 69 69 68 67
Wind_Direction
251 251 252 253 254 255 256 257 258 259 260 261 262 263 265 266 268 270 271 273 275 277 278 280 282 283 284 286 288 290 292 293 295 297 296 297 298 298 298 298 300 300 300
251 251 252 253 254 255 256 257 258 259 260 261 262 263 265 266 268 269 271 273 274 276 278 279 281 282 283 285 287 289 291 293 294 296 296 296 297 298 297 298 298 299 300
250 251 252 254 255 255 256 257 258 259 260 260 262 263 265 267 268 270 271 273 274 276 277 279 281 282 283 284 286 288 290 292 293 295 296 296 297 297 296 297 297 298 299
250 251 252 253 254 255 256 257 258 260 260 262 263 264 265 267 269 271 272 273 274 275 277 278 280 282 283 284 286 288 289 291 292 294 295 295 296 296 296 297 298 298 298
251 252 253 254 255 256 256 257 259 260 261 262 263 265 266 267 269 271 272 273 274 275 277 278 280 281 283 284 286 288 289 290 292 293 293 294 296 296 296 297 298 298 299
251 252 254 255 256 257 258 258 259 260 262 263 264 265 266 268 269 271 272 272 274 275 276 278 280 281 283 284 286 287 288 289 290 291 293 294 295 295 296 297 298 299 299
251 252 253 255 256 257 258 259 260 261 262 263 265 266 267 268 270 271 272 273 274 275 276 277 279 281 282 283 285 286 287 288 290 291 292 293 293 294 295 296 297 298 299
251 251 253 255 256 257 258 259 260 261 262 264 265 266 267 268 269 270 271 272 273 274 275 277 278 280 281 282 283 284 286 287 288 289 291 292 293 294 294 296 296 297 298
251 252 253 254 255 257 258 259 260 261 263 264 265 266 267 268 269 270 271 272 273 274 275 276 277 279 280 281 282 283 284 286 287 288 290 291 292 293 294 295 296 297 298
252 253 254 255 256 257 258 259 260 261 263 264 265 266 267 268 269 270 271 271 273 274 274 275 276 278 279 280 281 282 284 285 286 287 289 290 291 292 293 294 295 296 297
253 254 255 255 256 257 258 258 259 261 263 264 265 266 267 268 268 269 270 271 272 273 274 275 276 277 278 279 280 282 282 283 284 286 288 289 290 291 292 293 294 295 296
253 255 255 256 256 257 258 259 260 261 262 263 264 265 266 267 268 268 269 270 271 272 273 274 275 276 277 278 280 281 282 283 284 286 287 288 289 290 291 292 294 294 295
253 254 255 255 256 256 257 258 259 260 261 262 263 264 265 266 267 267 268 269 270 271 272 273 274 275 277 278 279 280 281 283 284 285 287 288 289 290 291 292 293 294 294
253 253 254 255 255 255 255 256 257 259 261 262 263 264 265 266 266 267 268 269 270 271 271 272 274 275 277 278 279 279 280 282 283 284 286 287 288 289 290 291 292 293 294
252 253 253 254 254 255 255 255 256 258 260 261 262 263 265 266 266 267 268 269 270 271 272 273 274 275 277 277 278 279 280 281 283 285 286 287 288 288 289 291 292 293 293
251 252 252 253 253 254 254 255 256 257 258 260 261 262 264 264 265 267 268 269 270 271 271 272 274 275 276 276 277 278 280 281 283 284 285 286 287 288 289 290 291 292 293
251 250 251 252 253 253 254 255 256 256 257 259 261 262 263 264 265 267 268 268 269 270 271 273 273 274 275 276 277 278 280 281 282 284 285 286 287 288 289 290 291 292 293
252 252 252 252 252 253 254 255 256 257 258 259 261 262 263 264 265 266 268 269 269 270 271 272 272 273 274 276 277 279 280 281 282 283 285 285 286 287 288 289 290 291 292
251 251 252 253 253 254 254 255 256 257 258 259 261 262 263 264 265 266 267 268 269 269 270 271 272 273 274 276 277 278 279 281 282 283 285 285 286 287 288 289 290 291 292
252 252 252 252 253 254 255 256 257 258 258 259 260 261 262 263 265 265 267 267 268 269 269 270 271 273 274 276 277 278 279 281 282 283 284 285 286 287 288 289 290 291 292
253 253 253 252 253 254 255 257 258 259 260 260 260 261 262 263 264 265 266 267 267 268 269 270 271 273 274 276 277 278 279 281 282 283 284 285 286 287 288 289 290 291 291
254 255 255 254 254 255 255 256 257 259 259 260 260 261 262 263 264 264 265 266 267 268 269 270 271 272 274 275 277 278 280 280 281 282 283 284 285 287 288 289 290 290 291
256 256 255 255 255 255 255 256 257 258 259 259 260 261 262 263 263 264 265 266 267 268 269 270 272 273 275 276 277 279 280 280 281 282 283 284 285 286 287 288 289 290 291
256 255 255 255 256 256 256 257 257 258 259 259 260 261 262 262 263 264 265 266 267 268 270 271 273 274 275 276 277 278 279 279 280 282 283 284 285 286 287 288 289 290 291
257 256 256 256 257 257 258 258 258 259 259 259 260 261 262 263 264 265 266 267 268 270 271 272 273 274 275 276 277 278 278 279 280 281 283 284 285 286 286 287 288 289 290
259 258 257 258 258 258 259 259 259 259 260 260 261 262 263 263 264 265 266 267 268 269 270 272 273 274 275 276 277 277 278 279 280 281 283 284 285 285 286 287 288 288 289
Height
5749 5751 5753 5755 5757 5758 5759 5761 5762 5762 5763 5763 5762 5762 5762 5761 5760 5759 5759 5758 5756 5755 5753 5751 5749 5746 5744 5741 5737 5734 5730 5726 5724 5725 5720 5715 5710 5706 5701 5696 5691 5686 5681
5734 5736 5739 5741 5743 5744 5746 5748 5748 5749 5749 5749 5749 5749 5749 5748 5747 5747 5746 5745 5744 5743 5741 5739 5737 5734 5732 5729 5725 5722 5719 5715 5711 5710 5708 5703 5698 5694 5689 5684 5679 5674 5669
5719 5722 5724 5727 5729 5731 5732 5733 5734 5734 5735 5735 5735 5736 5735 5735 5734 5734 5733 5732 5731 5730 5728 5726 5724 5721 5719 5716 5713 5710 5706 5703 5698 5695 5694 5690 5686 5681 5676 5671 5666 5662 5657
5704 5707 5710 5712 5714 5716 5717 5718 5719 5720 5720 5721 5721 5722 5721 5721 5720 5720 5719 5718 5717 5716 5714 5713 5711 5709 5706 5703 5700 5697 5694 5690 5686 5682 5680 5676 5672 5668 5663 5658 5654 5649 5645
5689 5693 5696 5698 5699 5701 5702 5703 5704 5705 5706 5706 5707 5707 5707 5707 5707 5706 5705 5704 5703 5702 5701 5699 5698 5695 5693 5690 5687 5684 5680 5677 5673 5670 5666 5663 5659 5655 5650 5646 5641 5637 5632
5674 5678 5681 5682 5684 5686 5687 5688 5689 5690 5691 5691 5692 5692 5692 5692 5692 5691 5690 5689 5689 5688 5687 5685 5683 5681 5679 5676 5673 5670 5667 5663 5660 5657 5654 5650 5646 5642 5637 5633 5628 5624 5620
5659 5662 5665 5667 5668 5670 5671 5673 5674 5675 5675 5676 5677 5677 5677 5678 5677 5676 5675 5674 5674 5674 5672 5671 5669 5667 5665 5662 5659 5656 5653 5650 5647 5644 5640 5637 5633 5629 5624 5620 5616 5611 5607
5644 5647 5649 5651 5653 5654 5656 5657 5659 5659 5660 5661 5661 5662 5662 5662 5661 5661 5660 5659 5659 5659 5658 5656 5654 5653 5650 5648 5645 5643 5640 5637 5634 5630 5627 5624 5620 5616 5612 5608 5603 5599 5595
5628 5630 5632 5634 5636 5638 5640 5642 5643 5643 5645 5645 5646 5646 5646 5647 5646 5646 5645 5644 5644 5644 5642 5641 5639 5638 5636 5633 5631 5629 5627 5623 5620 5616 5613 5610 5607 5603 5599 5595 5591 5586 5582
5611 5613 5615 5617 5620 5622 5624 5625 5626 5627 5629 5629 5630 5631 5631 5632 5631 5631 5629 5629 5629 5629 5627 5626 5625 5623 5621 5618 5616 5614 5612 5610 5606 5603 5600 5597 5593 5590 5586 5582 5578 5574 5570
5593 5595 5598 5600 5603 5605 5607 5609 5610 5611 5613 5614 5615 5616 5616 5616 5616 5615 5614 5614 5614 5613 5612 5611 5610 5608 5606 5604 5602 5600 5598 5595 5592 5589 5586 5583 5580 5577 5573 5569 5565 5561 5556
5575 5578 5581 5584 5586 5588 5590 5592 5593 5595 5596 5598 5599 5599 5600 5600 5600 5600 5599 5599 5598 5598 5597 5596 5595 5593 5591 5590 5588 5586 5584 5581 5578 5576 5573 5570 5567 5563 5559 5555 5551 5547 5543
5557 5560 5564 5566 5568 5570 5573 5575 5577 5578 5579 5581 5582 5583 5584 5584 5584 5584 5584 5583 5583 5582 5582 5581 5580 5578 5577 5575 5573 5571 5569 5567 5564 5562 5559 5556 5553 5549 5546 5542 5538 5534 5529
5538 5542 5545 5548 5550 5552 5555 5557 5559 5561 5563 5564 5565 5566 5567 5568 5568 5568 5568 5567 5567 5567 5566 5565 5564 5563 5562 5560 5559 5556 5554 5552 5550 5547 5544 5541 5538 5535 5531 5528 5524 5520 5516
5520 5523 5526 5529 5532 5535 5537 5540 5542 5544 5546 5547 5549 5550 5551 5552 5552 5552 5551 5552 5551 5550 5550 5549 5549 5548 5547 5545 5543 5541 5539 5537 5535 5532 5529 5526 5523 5520 5517 5513 5509 5505 5501
5501 5505 5508 5511 5514 5517 5519 5522 5524 5526 5528 5530 5531 5533 5534 5535 5535 5535 5535 5535 5535 5534 5534 5533 5533 5532 5530 5529 5527 5526 5524 5522 5519 5517 5514 5511 5508 5505 5502 5498 5494 5490 5486
5483 5486 5490 5493 5496 5499 5501 5504 5506 5509 5510 5512 5514 5515 5517 5517 5518 5518 5518 5518 5518 5518 5517 5517 5516 5515 5514 5513 5511 5510 5508 5506 5503 5501 5498 5495 5492 5489 5486 5482 5479 5475 5471
5465 5469 5472 5475 5478 5481 5483 5486 5488 5491 5493 5494 5496 5498 5499 5499 5500 5500 5501 5501 5501 5501 5501 5500 5499 5498 5497 5496 5495 5493 5491 5489 5487 5485 5482 5479 5476 5473 5470 5466 5462 5458 5454
5448 5451 5454 5458 5460 5463 5465 5468 5470 5472 5475 5476 5478 5480 5481 5481 5482 5483 5483 5484 5484 5484 5483 5483 5482 5481 5480 5479 5478 5476 5474 5472 5470 5468 5465 5462 5459 5456 5453 5449 5445 5441 5437
5431 5434 5437 5440 5442 5445 5447 5450 5452 5454 5456 5458 5460 5462 5463 5463 5464 5465 5465 5466 5466 5466 5465 5465 5465 5464 5463 5462 5460 5459 5457 5455 5453 5450 5448 5445 5442 5439 5435 5431 5427 5424 5419
5414 5417 5419 5422 5424 5427 5429 5432 5434 5436 5438 5440 5442 5443 5444 5445 5446 5447 5447 5448 5448 5448 5447 5447 5447 5446 5445 5444 5443 5441 5439 5437 5435 5432 5430 5427 5424 5420 5417 5413 5409 5405 5401
5397 5400 5402 5404 5407 5409 5412 5414 5416 5418 5420 5422 5423 5425 5426 5427 5428 5428 5429 5429 5429 5429 5429 5429 5428 5427 5427 5425 5424 5422 5421 5418 5416 5414 5411 5408 5405 5401 5398 5394 5390 5386 5381
5381 5383 5385 5387 5389 5391 5393 5396 5398 5399 5401 5403 5404 5406 5407 5408 5409 5409 5410 5410 5410 5410 5410 5410 5409 5408 5407 5406 5405 5403 5401 5399 5397 5394 5392 5389 5386 5382 5378 5374 5370 5366 5362
5364 5366 5368 5370 5372 5374 5376 5377 5379 5381 5382 5384 5385 5387 5388 5389 5389 5390 5391 5391 5391 5391 5391 5390 5390 5389 5388 5386 5385 5383 5381 5379 5377 5374 5372 5369 5365 5362 5358 5354 5350 5346 5342
5348 5349 5351 5353 5354 5356 5357 5359 5360 5362 5363 5365 5366 5367 5368 5369 5370 5370 5371 5371 5371 5371 5371 5370 5369 5369 5368 5366 5365 5363 5361 5358 5356 5353 5351 5348 5345 5341 5337 5334 5330 5325 5321
5331 5332 5334 5335 5337 5338 5339 5341 5342 5343 5344 5345 5347 5348 5349 5349 5350 5350 5350 5350 5350 5350 5350 5349 5348 5347 5346 5345 5343 5341 5339 5337 5334 5332 5329 5326 5323 5320 5316 5312 5309 5305 5300